• In Moldova, Republic
  • List of Countries
  • For 7 days
  • Water Temperature
  • Satellite Maps
  • Weather Map
  • Weather Widgets
  • user-avatar
    Login

    Hourly Weather Lezhe

    Today, 27 February, Monday

    Time Temperature Precipitation Wind Pressure Humidity
    00:00 +9°C° 0 mm 1 mps 739 mmHg 90%
    01:00 +8°C° 0 mm 1 mps 739 mmHg 90%
    02:00 +8°C° 0 mm 1 mps 739 mmHg 89%
    03:00 +8°C° 0 mm 1 mps 739 mmHg 89%
    04:00 +7°C° 0 mm 2 mps 738 mmHg 88%
    05:00 +8°C° 0 mm 2 mps 738 mmHg 88%
    06:00 +8°C° 0 mm 2 mps 738 mmHg 88%
    07:00 +9°C° 0 mm 2 mps 739 mmHg 87%
    08:00 +12°C° 0 mm 1 mps 739 mmHg 81%
    09:00 +14°C° 0 mm 1 mps 739 mmHg 76%
    10:00 +16°C° 0 mm 1 mps 738 mmHg 70%
    11:00 +16°C° 0 mm 1 mps 738 mmHg 68%
    12:00 +18°C° 0 mm 1 mps 738 mmHg 65%
    13:00 +19°C° 0 mm 1 mps 738 mmHg 63%
    14:00 +18°C° 0 mm 1 mps 738 mmHg 67%
    15:00 +18°C° 0 mm 1 mps 737 mmHg 71%
    16:00 +16°C° 0 mm 1 mps 737 mmHg 76%
    17:00 +14°C° 0 mm 1 mps 737 mmHg 81%
    18:00 +13°C° 0 mm 1 mps 737 mmHg 86%
    19:00 +11°C° 0 mm 1 mps 737 mmHg 91%
    20:00 +11°C° 0 mm 1 mps 737 mmHg 91%
    21:00 +10°C° 0 mm 1 mps 737 mmHg 91%
    22:00 +10°C° 0 mm 1 mps 738 mmHg 91%
    23:00 +10°C° 0 mm 1 mps 737 mmHg 91%

    Tomorrow, 28 February, Tuesday

    Time Temperature Precipitation Wind Pressure Humidity
    00:00 +9°C° 0 mm 1 mps 737 mmHg 92%
    01:00 +9°C° 0 mm 1 mps 737 mmHg 92%
    02:00 +9°C° 0 mm 1 mps 737 mmHg 92%
    03:00 +8°C° 0 mm 2 mps 737 mmHg 92%
    04:00 +8°C° 0 mm 2 mps 737 mmHg 92%
    05:00 +8°C° 0 mm 2 mps 737 mmHg 90%
    06:00 +8°C° 0 mm 2 mps 737 mmHg 89%
    07:00 +8°C° 0 mm 2 mps 737 mmHg 88%
    08:00 +10°C° 0 mm 2 mps 737 mmHg 82%
    09:00 +12°C° 0 mm 3 mps 737 mmHg 77%
    10:00 +14°C° 0 mm 3 mps 737 mmHg 71%
    11:00 +14°C° 0 mm 3 mps 736 mmHg 71%
    12:00 +15°C° 0 mm 4 mps 736 mmHg 71%
    13:00 +15°C° 0 mm 4 mps 736 mmHg 71%
    14:00 +15°C° 0.1 mm 4 mps 735 mmHg 74%
    15:00 +14°C° 0.1 mm 4 mps 735 mmHg 77%
    16:00 +14°C° 0.1 mm 4 mps 735 mmHg 81%
    17:00 +12°C° 0.1 mm 4 mps 735 mmHg 85%
    18:00 +11°C° 0.1 mm 3 mps 735 mmHg 90%
    19:00 +10°C° 0.1 mm 3 mps 735 mmHg 95%
    20:00 +10°C° 0.1 mm 4 mps 735 mmHg 94%
    21:00 +10°C° 0.1 mm 4 mps 735 mmHg 94%
    22:00 +10°C° 0.1 mm 4 mps 735 mmHg 94%
    23:00 +10°C° 0.2 mm 4 mps 735 mmHg 93%

    Day after tomorrow, 1 March, Wednesday

    Time Temperature Precipitation Wind Pressure Humidity
    00:00 +10°C° 0.2 mm 4 mps 735 mmHg 92%
    01:00 +9°C° 0.2 mm 5 mps 735 mmHg 91%
    02:00 +9°C° 0.3 mm 5 mps 735 mmHg 92%
    03:00 +9°C° 0.3 mm 5 mps 734 mmHg 92%
    04:00 +9°C° 0.3 mm 5 mps 734 mmHg 93%
    05:00 +9°C° 0.5 mm 5 mps 734 mmHg 93%
    06:00 +9°C° 0.5 mm 5 mps 733 mmHg 93%
    07:00 +9°C° 0.5 mm 6 mps 733 mmHg 93%
    08:00 +9°C° 0.7 mm 6 mps 733 mmHg 92%
    09:00 +10°C° 0.7 mm 6 mps 733 mmHg 91%
    10:00 +10°C° 0.7 mm 7 mps 733 mmHg 90%
    11:00 +10°C° 1.5 mm 7 mps 732 mmHg 90%
    12:00 +10°C° 1.5 mm 7 mps 731 mmHg 90%
    13:00 +10°C° 1.5 mm 7 mps 731 mmHg 91%
    14:00 +10°C° 4.4 mm 6 mps 731 mmHg 92%
    15:00 +9°C° 4.4 mm 5 mps 731 mmHg 94%
    16:00 +10°C° 4.4 mm 4 mps 731 mmHg 95%
    17:00 +9°C° 0.8 mm 3 mps 732 mmHg 95%
    18:00 +9°C° 0.8 mm 3 mps 733 mmHg 94%
    19:00 +8°C° 0.8 mm 2 mps 733 mmHg 93%
    20:00 +8°C° 0 mm 2 mps 734 mmHg 93%
    21:00 +7°C° 0 mm 2 mps 735 mmHg 93%
    22:00 +6°C° 0 mm 2 mps 735 mmHg 93%
    23:00 +6°C° 0 mm 2 mps 736 mmHg 92%

    2 March, Thursday

    Time Temperature Precipitation Wind Pressure Humidity
    00:00 +6°C° 0 mm 2 mps 736 mmHg 91%
    01:00 +5°C° 0 mm 2 mps 737 mmHg 91%
    02:00 +5°C° 0 mm 2 mps 737 mmHg 91%
    03:00 +5°C° 0 mm 2 mps 737 mmHg 91%
    04:00 +5°C° 0 mm 2 mps 737 mmHg 91%
    05:00 +4°C° 0 mm 2 mps 738 mmHg 90%
    06:00 +4°C° 0 mm 2 mps 738 mmHg 89%
    07:00 +3°C° 0 mm 3 mps 739 mmHg 88%
    08:00 +6°C° 0 mm 2 mps 739 mmHg 80%
    09:00 +8°C° 0 mm 2 mps 739 mmHg 72%
    10:00 +9°C° 0 mm 2 mps 739 mmHg 64%
    11:00 +10°C° 0 mm 2 mps 739 mmHg 61%
    12:00 +12°C° 0 mm 2 mps 739 mmHg 58%
    13:00 +13°C° 0 mm 2 mps 739 mmHg 54%
    14:00 +13°C° 0 mm 2 mps 739 mmHg 57%
    15:00 +13°C° 0 mm 2 mps 739 mmHg 60%
    16:00 +12°C° 0 mm 2 mps 739 mmHg 64%
    17:00 +10°C° 0 mm 2 mps 739 mmHg 68%
    18:00 +8°C° 0 mm 2 mps 739 mmHg 72%
    19:00 +7°C° 0 mm 1 mps 739 mmHg 76%
    20:00 +7°C° 0 mm 1 mps 740 mmHg 72%
    21:00 +7°C° 0 mm 1 mps 740 mmHg 68%
    22:00 +7°C° 0 mm 1 mps 740 mmHg 65%
    23:00 +7°C° 0 mm 1 mps 740 mmHg 63%

    3 March, Friday

    Time Temperature Precipitation Wind Pressure Humidity
    00:00 +7°C° 0 mm 1 mps 740 mmHg 61%
    01:00 +7°C° 0 mm 1 mps 740 mmHg 59%
    02:00 +6°C° 0 mm 1 mps 739 mmHg 59%
    03:00 +6°C° 0 mm 1 mps 739 mmHg 58%
    04:00 +6°C° 0 mm 1 mps 739 mmHg 58%
    05:00 +7°C° 0 mm 1 mps 739 mmHg 59%
    06:00 +7°C° 0 mm 1 mps 739 mmHg 60%
    07:00 +6°C° 0 mm 2 mps 740 mmHg 61%
    08:00 +10°C° 0 mm 1 mps 740 mmHg 57%
    09:00 +12°C° 0 mm 1 mps 740 mmHg 54%
    10:00 +15°C° 0 mm 1 mps 740 mmHg 50%
    11:00 +15°C° 0 mm 1 mps 740 mmHg 49%
    12:00 +16°C° 0 mm 1 mps 739 mmHg 49%
    13:00 +18°C° 0 mm 1 mps 739 mmHg 48%
    14:00 +16°C° 0 mm 1 mps 739 mmHg 54%
    15:00 +16°C° 0 mm 1 mps 739 mmHg 59%
    16:00 +15°C° 0 mm 1 mps 739 mmHg 65%
    17:00 +13°C° 0 mm 1 mps 739 mmHg 71%
    18:00 +11°C° 0 mm 1 mps 739 mmHg 78%
    19:00 +9°C° 0 mm 1 mps 739 mmHg 84%
    20:00 +8°C° 0 mm 1 mps 739 mmHg 83%
    21:00 +8°C° 0 mm 1 mps 740 mmHg 82%
    22:00 +8°C° 0 mm 1 mps 740 mmHg 81%
    23:00 +8°C° 0 mm 1 mps 740 mmHg 81%

    4 March, Saturday

    Time Temperature Precipitation Wind Pressure Humidity
    00:00 +7°C° 0 mm 1 mps 740 mmHg 80%
    01:00 +7°C° 0 mm 1 mps 740 mmHg 79%
    02:00 +7°C° 0 mm 1 mps 740 mmHg 79%
    03:00 +7°C° 0 mm 1 mps 740 mmHg 78%
    04:00 +7°C° 0 mm 1 mps 740 mmHg 78%
    05:00 +7°C° 0 mm 1 mps 740 mmHg 77%
    06:00 +7°C° 0 mm 1 mps 740 mmHg 76%
    07:00 +7°C° 0 mm 2 mps 740 mmHg 75%
    08:00 +9°C° 0 mm 2 mps 740 mmHg 70%
    09:00 +12°C° 0 mm 1 mps 740 mmHg 64%
    10:00 +15°C° 0 mm 1 mps 740 mmHg 59%
    11:00 +15°C° 0 mm 2 mps 740 mmHg 57%
    12:00 +16°C° 0 mm 2 mps 740 mmHg 56%
    13:00 +16°C° 0 mm 2 mps 739 mmHg 54%
    14:00 +16°C° 0 mm 2 mps 739 mmHg 57%
    15:00 +15°C° 0 mm 2 mps 739 mmHg 61%
    16:00 +15°C° 0 mm 1 mps 739 mmHg 65%
    17:00 +13°C° 0 mm 1 mps 739 mmHg 71%
    18:00 +11°C° 0 mm 1 mps 740 mmHg 77%
    19:00 +9°C° 0 mm 1 mps 740 mmHg 83%
    20:00 +9°C° 0 mm 1 mps 740 mmHg 82%
    21:00 +8°C° 0 mm 1 mps 740 mmHg 81%
    22:00 +8°C° 0 mm 1 mps 740 mmHg 80%
    23:00 +8°C° 0 mm 1 mps 740 mmHg 80%
    Show more